Date String (YYYY-MM-DD hh:mm:ss) UTC,Instrument flags,absolute air pressure of the measurement (hPa),sample flow rate (lpm),inlet stack bypass flow (lpm),air temperature of the measurement (°C),ambient temperature measured by the external sensor (°C),aerosol sample conditioner tube jacket temperature (°C),OPC LED temperature (°C),internal box temperature (°C),relative humidity of the measurement (%),span deviation,mass concentration of particles derived from Lorenz-Mie calculation of OPC scattering (μg/m³),mass concentration of particles derived from Lorenz-Mie calculation of OPC scattering (μg/m³),mass concentration of particles derived from Lorenz-Mie calculation of OPC scattering (μg/m³)
DateTimeUTC,F1_M11,P_M11,Q1_M11,Q2_M11,T1_M11,T2_M11,T3_M11,T4_M11,T5_M11,U1_M11,ZSPAN_M11,X2_M11,X0_M11,X1_M11
2024-03-19 09:00:00,SystemResetWarning,0830.4,5.01,000.00,019.2,018.5,000.0,027.8,020.9,15.0,0000.0,0001.96,0004.86,0000.89
2024-03-19 09:01:00,SystemResetWarning,0830.4,5.01,000.00,019.2,018.5,000.0,027.8,020.9,15.0,0000.0,0001.93,0004.72,0000.88
2024-03-19 09:02:00,SystemResetWarning,0830.4,5.00,000.00,019.2,018.5,000.0,027.7,020.9,15.0,0000.0,0001.94,0005.42,0000.88
2024-03-19 09:03:00,SystemResetWarning,0830.4,4.99,000.00,019.2,018.5,000.0,027.7,020.9,15.0,0000.0,0001.96,0005.38,0000.89
2024-03-19 09:04:00,SystemResetWarning,0830.4,5.00,000.00,019.2,018.5,000.0,027.7,020.9,15.2,0000.0,0001.97,0005.37,0000.88
2024-03-19 09:05:00,SystemResetWarning,0830.4,5.01,000.00,019.2,018.5,000.0,027.7,020.9,15.1,0000.0,0001.98,0005.47,0000.86
2024-03-19 09:06:00,SystemResetWarning,0830.4,5.00,000.00,019.2,018.4,000.0,027.7,020.9,15.0,0000.0,0002.02,0006.49,0000.85
2024-03-19 09:07:00,SystemResetWarning,0830.3,5.01,000.00,019.2,018.4,000.0,027.7,020.9,15.0,0000.0,0002.06,0006.83,0000.85
2024-03-19 09:08:00,SystemResetWarning,0830.3,5.00,000.00,019.1,018.4,000.0,027.7,020.9,15.0,0000.0,0001.98,0006.41,0000.83
2024-03-19 09:09:00,SystemResetWarning,0830.3,4.99,000.00,019.1,018.4,000.0,027.7,020.8,15.0,0000.0,0001.92,0006.16,0000.81
2024-03-19 09:10:00,SystemResetWarning,0830.3,4.99,000.00,019.1,018.4,000.0,027.7,020.8,15.0,0000.0,0001.93,0006.15,0000.80
2024-03-19 09:11:00,SystemResetWarning,0830.3,5.00,000.00,019.1,018.4,000.0,027.7,020.8,15.0,0000.0,0001.93,0006.04,0000.80
2024-03-19 09:12:00,SystemResetWarning,0830.3,5.00,000.00,019.1,018.4,000.0,027.6,020.8,15.0,0000.0,0001.97,0006.05,0000.80
2024-03-19 09:13:00,SystemResetWarning,0830.3,5.00,000.00,019.1,018.4,000.0,027.6,020.8,14.9,0000.0,0001.93,0005.17,0000.79
2024-03-19 09:14:00,SystemResetWarning,0830.3,5.00,000.00,019.1,018.4,000.0,027.6,020.8,14.8,0000.0,0001.91,0005.18,0000.79
2024-03-19 09:15:00,SystemResetWarning,0830.3,4.99,000.00,019.1,018.4,000.0,027.6,020.8,14.9,0000.0,0001.87,0005.24,0000.79
2024-03-19 09:16:00,SystemResetWarning,0830.3,5.01,000.00,019.1,018.4,000.0,027.6,020.8,14.9,0000.0,0001.90,0005.39,0000.81
2024-03-19 09:17:00,SystemResetWarning,0830.3,5.00,000.00,019.1,018.4,000.0,027.6,020.8,15.0,0000.0,0001.86,0004.44,0000.82
2024-03-19 09:18:00,SystemResetWarning,0830.3,5.00,000.00,019.1,018.4,000.0,027.6,020.8,14.8,0000.0,0001.83,0004.74,0000.83
2024-03-19 09:19:00,SystemResetWarning,0830.3,5.01,000.00,019.1,018.3,000.0,027.6,020.8,14.9,0000.0,0001.89,0005.20,0000.84
2024-03-19 09:20:00,SystemResetWarning,0830.3,5.00,000.00,019.1,018.3,000.0,027.6,020.8,15.0,0000.0,0001.96,0005.46,0000.86
2024-03-19 09:21:00,SystemResetWarning,0830.2,5.00,000.00,019.0,018.3,000.0,027.6,020.8,15.0,0000.0,0001.91,0005.34,0000.87
2024-03-19 09:22:00,SystemResetWarning,0830.3,5.00,000.00,019.0,018.3,000.0,027.6,020.7,15.1,0000.0,0001.93,0005.51,0000.86
2024-03-19 09:23:00,SystemResetWarning,0830.3,5.00,000.00,019.0,018.3,000.0,027.6,020.8,15.1,0000.0,0001.96,0005.67,0000.86
2024-03-19 09:24:00,SystemResetWarning,0830.2,4.99,000.00,019.0,018.3,000.0,027.6,020.7,15.1,0000.0,0002.02,0005.94,0000.86
2024-03-19 09:25:00,SystemResetWarning,0830.2,4.99,000.00,019.0,018.3,000.0,027.6,020.7,15.0,0000.0,0002.03,0006.10,0000.85
2024-03-19 09:26:00,SystemResetWarning,0830.2,5.00,000.00,019.0,018.3,000.0,027.5,020.7,15.0,0000.0,0002.09,0006.10,0000.85
2024-03-19 09:27:00,SystemResetWarning,0830.2,5.01,000.00,019.0,018.3,000.0,027.5,020.7,14.9,0000.0,0002.11,0006.11,0000.84
2024-03-19 09:28:00,SystemResetWarning,0830.2,5.01,000.00,019.0,018.3,000.0,027.5,020.7,14.9,0000.0,0002.09,0006.01,0000.85
2024-03-19 09:29:00,SystemResetWarning,0830.2,5.01,000.00,019.0,018.3,000.0,027.5,020.7,15.0,0000.0,0002.16,0006.01,0000.84
2024-03-19 09:30:00,SystemResetWarning,0830.2,4.99,000.00,019.0,018.3,000.0,027.5,020.7,15.0,0000.0,0002.23,0005.45,0000.84
2024-03-19 09:31:00,SystemResetWarning,0830.2,5.00,000.00,019.0,018.3,000.0,027.5,020.7,15.0,0000.0,0002.24,0005.29,0000.85
2024-03-19 09:32:00,SystemResetWarning,0830.2,5.00,000.00,019.0,018.3,000.0,027.5,020.7,15.0,0000.0,0002.23,0005.26,0000.84
2024-03-19 09:33:00,SystemResetWarning,0830.2,5.00,000.00,019.0,018.3,000.0,027.5,020.7,15.0,0000.0,0002.30,0005.49,0000.84
2024-03-19 09:34:00,SystemResetWarning,0830.2,5.00,000.00,019.0,018.3,000.0,027.5,020.7,15.0,0000.0,0002.26,0005.25,0000.84
2024-03-19 09:35:00,SystemResetWarning,0830.2,5.00,000.00,018.9,018.2,000.0,027.5,020.7,15.1,0000.0,0002.20,0005.11,0000.83
2024-03-19 09:36:00,SystemResetWarning,0830.3,5.00,000.00,018.9,018.2,000.0,027.5,020.7,15.0,0000.0,0002.18,0004.98,0000.83
2024-03-19 09:37:00,SystemResetWarning,0830.2,5.01,000.00,018.9,018.2,000.0,027.5,020.7,14.9,0000.0,0002.19,0005.74,0000.83
2024-03-19 09:38:00,SystemResetWarning,0830.2,5.01,000.00,018.9,018.2,000.0,027.5,020.6,15.0,0000.0,0002.13,0006.43,0000.83
2024-03-19 09:39:00,SystemResetWarning,0830.2,5.00,000.00,018.9,018.2,000.0,027.5,020.6,14.9,0000.0,0002.12,0007.16,0000.83
2024-03-19 09:40:00,SystemResetWarning,0830.2,5.00,000.00,018.9,018.2,000.0,027.4,020.6,15.0,0000.0,0002.09,0007.51,0000.82
2024-03-19 09:41:00,SystemResetWarning,0830.2,5.00,000.00,018.9,018.2,000.0,027.4,020.6,15.0,0000.0,0002.07,0007.41,0000.83
2024-03-19 09:42:00,SystemResetWarning,0830.2,5.00,000.00,018.9,018.2,000.0,027.4,020.6,14.9,0000.0,0002.03,0007.33,0000.84
2024-03-19 09:43:00,SystemResetWarning,0830.2,5.00,000.00,018.9,018.2,000.0,027.4,020.6,15.0,0000.0,0002.05,0007.38,0000.84
2024-03-19 09:44:00,SystemResetWarning,0830.2,5.00,000.00,018.9,018.2,000.0,027.4,020.6,14.9,0000.0,0002.01,0007.31,0000.85
2024-03-19 09:45:00,SystemResetWarning,0830.2,5.01,000.00,018.9,018.2,000.0,027.4,020.6,14.9,0000.0,0001.95,0007.26,0000.84
2024-03-19 09:46:00,SystemResetWarning,0830.2,5.01,000.00,018.9,018.2,000.0,027.4,020.6,14.9,0000.0,0001.93,0007.25,0000.84
2024-03-19 09:47:00,SystemResetWarning,0830.3,5.00,000.00,018.9,018.2,000.0,027.4,020.6,14.9,0000.0,0001.91,0007.45,0000.85
2024-03-19 09:48:00,SystemResetWarning,0830.2,4.99,000.00,018.9,018.2,000.0,027.4,020.6,15.0,0000.0,0001.87,0007.52,0000.86
2024-03-19 09:49:00,SystemResetWarning,0830.2,5.00,000.00,018.9,018.2,000.0,027.4,020.6,15.4,0000.0,0001.88,0006.32,0000.87
2024-03-19 09:50:00,SystemResetWarning,0830.2,5.00,000.00,018.8,018.2,000.0,027.4,020.6,15.3,0000.0,0001.88,0005.93,0000.87
2024-03-19 09:51:00,SystemResetWarning,0830.2,5.00,000.00,018.8,018.2,000.0,027.4,020.6,15.2,0000.0,0001.89,0005.02,0000.89
2024-03-19 09:52:00,SystemResetWarning,0830.2,5.01,000.00,018.8,018.2,000.0,027.4,020.5,15.3,0000.0,0001.90,0005.17,0000.89
2024-03-19 09:53:00,SystemResetWarning,0830.2,5.01,000.00,018.8,018.2,000.0,027.4,020.5,15.3,0000.0,0001.92,0005.50,0000.89
2024-03-19 09:54:00,SystemResetWarning,0830.2,5.00,000.00,018.8,018.2,000.0,027.4,020.5,15.2,0000.0,0001.93,0006.01,0000.89
2024-03-19 09:55:00,SystemResetWarning,0830.1,5.00,000.00,018.8,018.1,000.0,027.4,020.5,15.4,0000.0,0001.91,0006.09,0000.89
2024-03-19 09:56:00,SystemResetWarning,0830.1,4.99,000.00,018.8,018.1,000.0,027.3,020.5,15.3,0000.0,0001.92,0006.09,0000.90
2024-03-19 09:57:00,SystemResetWarning,0830.1,4.99,000.00,018.8,018.1,000.0,027.3,020.5,15.2,0000.0,0002.02,0006.26,0000.92
2024-03-19 09:58:00,SystemResetWarning,0830.1,4.99,000.00,018.8,018.1,000.0,027.3,020.5,15.1,0000.0,0002.02,0006.08,0000.91
2024-03-19 09:59:00,SystemResetWarning,0830.1,5.01,000.00,018.8,018.1,000.0,027.3,020.5,15.0,0000.0,0002.02,0005.54,0000.90
